Home   Weather   Taloyoak   Past weeks
Flag for Canada

Past Weather in Taloyoak, Nunavut, Canada — Yesterday and Last 2 Weeks

Now
0 °F

Broken clouds.


Feels Like: -15 °F
Forecast: -4 / -17 °F
Wind: 8 mph from Northwest

Location: Spence Bay Airport

Current Time: Apr 23, 2019 at 4:14:11 pm

Latest Report: Apr 23, 2019 at 3:00 pm


Visibility: 15 mi

Pressure: 30.08 "Hg

Humidity: 65%

Dew Point: -9 °F

Location of TaloyoakLocation

Past Weather in Taloyoak — Graph

°F

Taloyoak Temperature Yesterday

Maximum temperature yesterday: -6 °F (at 12:00 pm)
Minimum temperature yesterday: -13 °F (at 11:00 pm)
Average temperature yesterday: -8 °F

High & Low Weather Summary for the Past Weeks

 TemperatureHumidityPressure
High16 °F (Apr 11, 1:00 pm)85% (Apr 8, 5:27 pm)30.24 "Hg (Apr 8, 5:27 pm)
Low-26 °F (Apr 14, 7:00 am)54% (Apr 22, 12:00 pm)29.79 "Hg (Apr 19, 9:00 am)
Average-6 °F72%30.06 "Hg
* Reported Apr 8 3:00 pm — Apr 23 3:00 pm, Taloyoak. Weather by CustomWeather, © 2019

Note: Actual official high and low records may vary slightly from our data, if they occured in-between our weather recording intervals... More about our weather records

Advertising

Taloyoak Weather History for the Previous 24 Hours

Scroll right to see more
 ConditionsComfort  
Time TempWeatherWind HumidityBarometerVisibility
3:00 pm
Tue, Apr 23
0 °FBroken clouds.8 mph65%30.08 "Hg15 mi
2:00 pm0 °FFog.9 mph65%30.09 "Hg15 mi
1:00 pm-2 °FPartly sunny.2 mph65%30.09 "Hg15 mi
12:00 pm-4 °FSnow flurries. Partly sunny.5 mph65%30.09 "Hg15 mi
11:00 am-8 °FSnow flurries. Broken clouds.6 mph70%30.09 "Hg15 mi
10:00 am-6 °FSnow flurries. Fog.12 mph70%30.09 "Hg15 mi
9:00 am-8 °FSnow flurries. Scattered clouds.12 mph64%30.09 "Hg15 mi
8:00 am-11 °FSnow flurries. Passing clouds.6 mph70%30.09 "Hg15 mi
7:33 am-11 °FSnow flurries. Fog.13 mph70%30.09 "Hg15 mi
7:00 am-13 °FIce fog.10 mph76%30.10 "Hg4 mi
6:42 am-13 °FIce fog.3 mph76%30.11 "Hg1 mi
6:27 am-13 °FIce fog.3 mph69%30.11 "Hg4 mi
6:00 am-13 °FSnow flurries. Fog.8 mph76%30.10 "Hg15 mi
5:00 am-11 °FSnow flurries. Fog.9 mph70%30.11 "Hg15 mi
4:00 am-13 °FSnow flurries. Fog.6 mph76%30.12 "Hg15 mi
3:00 am-13 °FSnow flurries. Fog.7 mph69%30.12 "Hg15 mi
2:00 am-11 °FSnow flurries. Passing clouds.9 mph70%30.12 "Hg15 mi
1:00 am-11 °FSnow flurries. Passing clouds.7 mph70%30.11 "Hg15 mi
12:00 am-11 °FSnow flurries. Passing clouds.12 mph70%30.11 "Hg15 mi
11:00 pm
Mon, Apr 22
-13 °FSnow flurries. Passing clouds.13 mph69%30.11 "Hg15 mi
10:00 pm-9 °FPassing clouds.13 mph70%30.12 "Hg15 mi
9:43 pm-9 °FFog.8 mph70%30.13 "Hg15 mi
9:22 pm-11 °FIce fog.6 mph76%30.13 "Hg6 mi
9:00 pm-9 °FIce fog.9 mph70%30.12 "Hg2 mi
8:00 pm-9 °FIce fog.16 mph70%30.11 "Hg3 mi
7:00 pm-9 °FLight fog.8 mph70%30.14 "Hg10 mi
6:00 pm-8 °FFog.12 mph58%30.14 "Hg15 mi
5:00 pm-8 °FFog.12 mph64%30.14 "Hg15 mi
4:00 pm-8 °FFog.14 mph64%30.15 "Hg15 mi
Weather by CustomWeather, © 2019

See weather overview